This is the latest recevied weather packets stored in our database for station/object VK3BYD-3. If no packets are shown the sender has not sent any weather packets the latest 10 day(s).
| Time | Temp. | Humidity | Pressure | Rain* | Wind** | Luminosity | Snow |
|---|---|---|---|---|---|---|---|
| 1778098803 | 3.89° C | 88% | 1018 hPa | 0 mm | - | - | - |
| 1778097903 | 4.44° C | 86% | 1017.8 hPa | 0 mm | - | - | - |
| 1778097001 | 4.44° C | 85% | 1017.7 hPa | 0 mm | - | - | - |
| 1778096099 | 5° C | 84% | 1017.6 hPa | 0 mm | - | - | - |
| 1778095199 | 5° C | 84% | 1017.5 hPa | 0 mm | - | - | - |
| 1778094299 | 5.56° C | 84% | 1017.3 hPa | 0 mm | - | - | - |
| 1778093399 | 5.56° C | 84% | 1017.2 hPa | 0 mm | - | - | - |
| 1778092499 | 5.56° C | 85% | 1017.1 hPa | 0 mm | - | - | - |
| 1778091599 | 5.56° C | 85% | 1016.9 hPa | 0 mm | - | - | - |
| 1778090699 | 5.56° C | 83% | 1016.8 hPa | 0 mm | - | - | - |
| 1778089799 | 6.11° C | 83% | 1016.8 hPa | 0 mm | - | - | - |
| 1778088898 | 6.11° C | 85% | 1016.7 hPa | 0 mm | - | - | - |
| 1778087999 | 6.67° C | 91% | 1016.8 hPa | 0 mm | - | - | - |
| 1778087098 | 6.67° C | 91% | 1016.8 hPa | 0 mm | - | - | - |
| 1778086199 | 7.22° C | 90% | 1016.8 hPa | 0 mm | - | - | - |
| 1778085299 | 7.78° C | 91% | 1016.7 hPa | 0 mm | - | - | - |
| 1778084401 | 7.78° C | 91% | 1016.6 hPa | 0 mm | - | - | - |
| 1778083503 | 7.78° C | 91% | 1016.4 hPa | 0 mm | - | - | - |
| 1778082601 | 7.78° C | 91% | 1016.4 hPa | 0 mm | - | - | - |
| 1778081698 | 8.33° C | 92% | 1016.4 hPa | 0 mm | - | - | - |
| 1778080801 | 8.33° C | 92% | 1016.2 hPa | 0.51 mm | - | - | - |
| 1778079899 | 8.33° C | 92% | 1016.2 hPa | 0.51 mm | - | - | - |
| 1778079002 | 8.89° C | 92% | 1016.1 hPa | 0.51 mm | - | - | - |
| 1778078096 | 10.56° C | 92% | 1016 hPa | 0.51 mm | - | - | - |
| 1778077196 | 11.11° C | 96% | 1015.4 hPa | 0.51 mm | - | - | - |
* Rain latest hour (hover to see other rain measurements)
** Current wind speed in m/s (hover to see current wind gust speed)